{"data":{"norad_id":45222,"epoch":"2026-05-24T21:37:42.696768Z","epoch_age_seconds":87051,"freshness":"FRESH","line1":"1 45222U 20012AW  26144.90118862  .00042578  00000+0  11460-2 0  9991","line2":"2 45222  53.1558   2.7900 0004070 139.9119 220.2186 15.37461822347213","mean_motion":15.37461822,"eccentricity":0.000407,"inclination_deg":53.1558,"raan_deg":2.79,"arg_perigee_deg":139.9119,"mean_anomaly_deg":220.2186,"bstar":0.001146,"rev_number":34721,"period_min":93.660862298797,"perigee_km":450.8374417218,"apogee_km":456.39849026412,"semimajor_km":6831.754965993,"source":"CELESTRAK","updated_at":"2026-05-25T13:38:16.384187Z"}}